Location: Faicchio
(41.2833°N, 14.4833°E)
Time: 06:00:36
(UTC+00:00)

Cosmos 2082 Rocket - Pass Details

Date: 15 June 2025
Orbit: 830 x 854 km, 71.0° (Epoch: 16 July)

Event Time Altitude Azimuth Distance (km) Brightness Sun altitude
Rises 01:47:43 0° 333° (NNW) 3,420 5.7 -14.9°
Reaches altitude 10° 01:50:11 10° 330° (NNW) 2,483 4.9 -14.6°
Maximum altitude 01:55:49 64° 251° (WSW) 938 2.2 -13.9°
Drops below altitude 10° 02:01:27 10° 170° (S) 2,475 4.3 -13.3°
Sets 02:03:54 0° 167° (SSE) 3,407 5.0 -12.9°
